Content
SEND FEEDBACK

Daily
Averages
Monthly
Summary
Czech Republic

BRNO, CZECH REPUBLIC


Home > Europe > Czech Republic
Elevation: 807 feet     Latitude: 49 09N     Longitude: 016 42E

WEATHER
 
SELECT A DAY
Number of Records: 285,962;   Date Range: 2/20/97 - 7/20/14
 
SHARE

PRINT THIS DATA

[ ← Previous Day ]
WEATHER ALMANAC - APRIL 29, 2013
[ Next Day → ]
[ °C ]   °F
Weather ElementAverageHighLow
Temperature56.8 °F68 °F (5:30 pm)44.6 °F (5:00 am)
Dewpoint48.3 °F53.6 °F (12:00 pm)42.8 °F (2:30 am)
Humidity74 %93 % (5:00 am)51 % (2:00 pm)
Barometer30.01 in30.12 in (11:30 pm)29.95 in (7:30 am)
Wind Speed6.9 mph13.8 mph (1:30 am)
Weather ElementAverage
Visibility3.9 mi
Wind DirectionSSE (167.9 °)

Weather ElementTotal
Precipitation---
Heating Degree Days8.7 (Base 65)
Growing Degree Days6.3 (Base 50)
Averaged from 52 records on April 29, 2013
WEATHER CONDITIONS BREAKOUT
WIND DIRECTION BREAKOUT
WEATHER BY HOUR - APRIL 29, 2013
[ °C ]   °F
Local TimeTemperatureDewpointHumidityBarometerVisibilityWind DirectionWind SpeedGust SpeedPrecipitationEventsConditions
12:30 AM48.2 °F44.6 °F87 %30.01 in6.2 miENE (60°)12.7 mphPartly Cloudy
1:00 AM48.2 °F44.6 °F87 %30.01 in6.2 miENE (60°)12.7 mphMostly Cloudy
1:30 AM48.2 °F44.6 °F87 %30.01 inENE (60°)13.8 mphClear
2:00 AM47.0 °F43.0 °F80 %30.03 in4.0 miNE (50°)8.9 mphMist
2:00 AM48.2 °F44.6 °F87 %30.01 in4.3 miNE (50°)9.2 mph
2:30 AM46.4 °F42.8 °F87 %30.01 in3.1 miNE (40°)6.9 mphMist
3:00 AM46.4 °F42.8 °F87 %29.98 in4.3 miNE (50°)5.8 mph
3:30 AM46.4 °F42.8 °F87 %29.98 in4.3 miNNW (340°)3.5 mph
4:00 AM46.4 °F42.8 °F87 %29.98 in3.1 miNE (40°)5.8 mphPartly Cloudy
4:22 AM46.4 °F42.8 °F87 %29.98 in2.5 miNNE (20°)6.9 mphScattered Clouds
4:30 AM46.4 °F42.8 °F87 %29.98 in2.5 miNNE (20°)6.9 mphMostly Cloudy
5:00 AM44.6 °F42.8 °F93 %29.98 in2.5 miNE (50°)5.8 mphScattered Clouds
5:30 AM44.6 °F42.8 °F93 %29.98 in2.8 miWest (280°)3.5 mphMist
6:00 AM46.4 °F42.8 °F87 %29.98 in2.5 miENE (60°)3.5 mphMist
6:30 AM46.4 °F42.8 °F87 %29.98 in2.5 miENE (60°)8.1 mphMist
7:00 AM48.2 °F44.6 °F87 %29.98 in2.5 miENE (60°)10.4 mphMist
7:30 AM48.2 °F46.4 °F93 %29.95 inENE (60°)12.7 mphMist
8:00 AM49.0 °F46.0 °F84 %30.00 in3.0 miENE (70°)8.9 mphMist
8:00 AM50.0 °F46.4 °F87 %29.98 in2.8 miENE (60°)11.5 mphMist
8:30 AM51.8 °F48.2 °F88 %29.98 in2.5 miENE (70°)10.4 mphScattered Clouds
9:00 AM53.6 °F48.2 °F82 %29.98 in2.8 miENE (70°)6.9 mphPartly Cloudy
9:30 AM55.4 °F50.0 °F82 %29.98 in3.1 miENE (70°)6.9 mphMist
10:00 AM57.2 °F50.0 °F77 %29.98 in3.1 miEast (100°)4.6 mphMist
10:30 AM59.0 °F51.8 °F77 %30.01 in3.7 miESE (120°)4.6 mph
11:00 AM59.0 °F51.8 °F77 %29.98 in4.3 miVariable3.5 mph
11:30 AM62.6 °F51.8 °F68 %30.01 in5.0 miSouth (190°)3.5 mph
12:00 PM62.6 °F53.6 °F72 %30.01 in5.6 miSW (220°)5.8 mph
12:30 PM62.6 °F53.6 °F72 %30.04 in5.6 miSW (220°)6.9 mph
1:00 PM62.6 °F51.8 °F68 %30.01 inSW (220°)5.8 mphClear
1:30 PM64.4 °F51.8 °F64 %30.01 inSSE (160°)3.5 mphClear
2:00 PM66.0 °F52.0 °F51 %29.98 in6.0 miSW (230°)2.2 mphMostly Cloudy
2:00 PM64.4 °F51.8 °F64 %29.98 inVariable2.3 mphClear
2:30 PM66.2 °F51.8 °F60 %30.01 inWest (260°)6.9 mphClear
3:00 PM66.2 °F51.8 °F60 %30.01 inWSW (240°)9.2 mphClear
3:30 PM66.2 °F50.0 °F56 %30.01 inWSW (250°)4.6 mphClear
4:00 PM66.2 °F50.0 °F56 %30.01 inWSW (250°)3.5 mphClear
4:30 PM66.2 °F51.8 °F60 %30.01 inWest (270°)3.5 mphClear
5:00 PM66.2 °F51.8 °F60 %30.01 inWest (280°)4.6 mphClear
5:30 PM68.0 °F51.8 °F56 %30.01 inWest (260°)4.6 mphClear
6:00 PM68.0 °F51.8 °F56 %30.01 inWNW (290°)4.6 mphClear
6:30 PM68.0 °F51.8 °F56 %30.01 inWNW (300°)5.8 mphClear
7:00 PM66.2 °F51.8 °F60 %30.01 inWNW (290°)9.2 mphClear
7:30 PM64.4 °F50.0 °F59 %30.04 inWNW (300°)11.5 mphClear
8:00 PM63.0 °F50.0 °F54 %30.03 in9.0 miWNW (300°)11.2 mphMostly Cloudy
8:00 PM62.6 °F50.0 °F63 %30.04 inWNW (300°)11.5 mphClear
8:30 PM62.6 °F50.0 °F63 %30.04 inNW (320°)9.2 mphClear
9:00 PM60.8 °F50.0 °F68 %30.06 inNorth (350°)6.9 mphClear
9:30 PM60.8 °F50.0 °F68 %30.06 inNNW (340°)9.2 mphClear
10:00 PM59.0 °F50.0 °F72 %30.09 inNNW (330°)6.9 mphClear
10:30 PM59.0 °F50.0 °F72 %30.09 inVariable2.3 mphClear
11:00 PM59.0 °F50.0 °F72 %30.09 inNW (320°)4.6 mphClear
11:30 PM59.0 °F50.0 °F72 %30.12 inNW (320°)6.9 mphClear
Hourly data recorded from LKTB, located miles away from Brno, Czech Republic







STORIES FROM OUR PARTNERS